• In Kazakhstan
  • List of Countries
  • For 7 days
  • Water Temperature
  • Weather Map
  • News
  • Weather Widgets
  • user-avatar
    Login

    Hourly Weather Rechytsa

    Today, 28 January, Tuesday

    Time Temperature Precipitation Wind Pressure Humidity
    00:00 -2°C° 0 mm 2 mps 748 mmHg 94%
    01:00 -2°C° 0 mm 2 mps 748 mmHg 94%
    02:00 -2°C° 0 mm 2 mps 748 mmHg 93%
    03:00 -2°C° 0 mm 2 mps 747 mmHg 92%
    04:00 -2°C° 0 mm 2 mps 747 mmHg 91%
    05:00 -2°C° 0 mm 2 mps 747 mmHg 90%
    06:00 -2°C° 0 mm 2 mps 747 mmHg 89%
    07:00 -2°C° 0 mm 2 mps 747 mmHg 88%
    08:00 -2°C° 0 mm 2 mps 747 mmHg 87%
    09:00 -1°C° 0 mm 2 mps 747 mmHg 83%
    10:00 +1°C° 0 mm 2 mps 747 mmHg 79%
    11:00 +1°C° 0 mm 2 mps 747 mmHg 75%
    12:00 +2°C° 0 mm 2 mps 746 mmHg 74%
    13:00 +2°C° 0 mm 2 mps 746 mmHg 73%
    14:00 +3°C° 0 mm 2 mps 745 mmHg 73%
    15:00 +2°C° 0 mm 2 mps 745 mmHg 77%
    16:00 +1°C° 0 mm 2 mps 745 mmHg 81%
    17:00 -1°C° 0 mm 2 mps 745 mmHg 85%
    18:00 -1°C° 0 mm 2 mps 744 mmHg 87%
    19:00 -1°C° 0 mm 2 mps 744 mmHg 89%
    20:00 -1°C° 0 mm 3 mps 744 mmHg 91%
    21:00 -1°C° 0 mm 3 mps 744 mmHg 92%
    22:00 -1°C° 0 mm 3 mps 744 mmHg 93%
    23:00 -1°C° 0 mm 3 mps 743 mmHg 94%

    Tomorrow, 29 January, Wednesday

    Time Temperature Precipitation Wind Pressure Humidity
    00:00 -1°C° 0 mm 3 mps 743 mmHg 94%
    01:00 -1°C° 0 mm 3 mps 743 mmHg 93%
    02:00 -1°C° 0 mm 3 mps 742 mmHg 93%
    03:00 -1°C° 0 mm 3 mps 742 mmHg 92%
    04:00 -2°C° 0 mm 4 mps 741 mmHg 91%
    05:00 -2°C° 0 mm 4 mps 740 mmHg 90%
    06:00 -2°C° 0 mm 4 mps 740 mmHg 92%
    07:00 -1°C° 0 mm 4 mps 740 mmHg 94%
    08:00 -1°C° 0 mm 5 mps 739 mmHg 95%
    09:00 0°C° 0.1 mm 5 mps 739 mmHg 95%
    10:00 0°C° 0.1 mm 5 mps 738 mmHg 94%
    11:00 +1°C° 0.1 mm 5 mps 738 mmHg 93%
    12:00 +1°C° 0.1 mm 5 mps 737 mmHg 93%
    13:00 +1°C° 0.1 mm 5 mps 736 mmHg 93%
    14:00 +1°C° 0.1 mm 5 mps 736 mmHg 93%
    15:00 +1°C° 0.5 mm 5 mps 735 mmHg 94%
    16:00 +1°C° 0.5 mm 5 mps 735 mmHg 95%
    17:00 +1°C° 0.5 mm 5 mps 734 mmHg 96%
    18:00 0°C° 0.8 mm 4 mps 734 mmHg 96%
    19:00 0°C° 0.8 mm 4 mps 734 mmHg 96%
    20:00 0°C° 0.8 mm 4 mps 734 mmHg 97%
    21:00 +1°C° 0.8 mm 3 mps 733 mmHg 97%
    22:00 +1°C° 0.8 mm 3 mps 733 mmHg 97%
    23:00 +2°C° 0.8 mm 2 mps 733 mmHg 98%

    Day after tomorrow, 30 January, Thursday

    Time Temperature Precipitation Wind Pressure Humidity
    00:00 +2°C° 0.1 mm 2 mps 733 mmHg 98%
    01:00 +2°C° 0.1 mm 2 mps 733 mmHg 98%
    02:00 +1°C° 0.1 mm 2 mps 733 mmHg 98%
    03:00 +1°C° 0.1 mm 2 mps 733 mmHg 98%
    04:00 +1°C° 0.1 mm 2 mps 733 mmHg 98%
    05:00 -1°C° 0.1 mm 2 mps 732 mmHg 98%
    06:00 -1°C° 0.1 mm 2 mps 733 mmHg 98%
    07:00 +2°C° 0.1 mm 1 mps 733 mmHg 98%
    08:00 +2°C° 0.1 mm 1 mps 733 mmHg 98%
    09:00 +1°C° 0.4 mm 2 mps 733 mmHg 98%
    10:00 0°C° 0.4 mm 3 mps 733 mmHg 98%
    11:00 +1°C° 0.4 mm 3 mps 733 mmHg 97%
    12:00 0°C° 0.5 mm 4 mps 734 mmHg 97%
    13:00 0°C° 0.5 mm 4 mps 734 mmHg 97%
    14:00 +1°C° 0.5 mm 5 mps 734 mmHg 97%
    15:00 +1°C° 0.7 mm 5 mps 735 mmHg 97%
    16:00 +1°C° 0.7 mm 5 mps 735 mmHg 97%
    17:00 +1°C° 0.7 mm 5 mps 736 mmHg 97%
    18:00 +1°C° 0.6 mm 6 mps 737 mmHg 96%
    19:00 +1°C° 0.6 mm 6 mps 737 mmHg 96%
    20:00 +1°C° 0.6 mm 6 mps 738 mmHg 96%
    21:00 -1°C° 0.3 mm 6 mps 738 mmHg 95%
    22:00 -1°C° 0.3 mm 6 mps 739 mmHg 93%
    23:00 -1°C° 0.3 mm 7 mps 739 mmHg 91%

    31 January, Friday

    Time Temperature Precipitation Wind Pressure Humidity
    00:00 -1°C° 0 mm 6 mps 740 mmHg 91%
    01:00 -2°C° 0 mm 6 mps 740 mmHg 91%
    02:00 -1°C° 0 mm 5 mps 740 mmHg 91%
    03:00 -1°C° 0.1 mm 5 mps 741 mmHg 91%
    04:00 -1°C° 0.1 mm 5 mps 741 mmHg 90%
    05:00 -1°C° 0.1 mm 5 mps 741 mmHg 89%
    06:00 -1°C° 0 mm 4 mps 741 mmHg 89%
    07:00 -2°C° 0 mm 4 mps 741 mmHg 89%
    08:00 -2°C° 0 mm 4 mps 741 mmHg 90%
    09:00 -2°C° 0 mm 4 mps 741 mmHg 89%
    10:00 -1°C° 0 mm 4 mps 741 mmHg 88%
    11:00 -1°C° 0 mm 4 mps 741 mmHg 87%
    12:00 -1°C° 0 mm 4 mps 741 mmHg 90%
    13:00 -1°C° 0 mm 4 mps 740 mmHg 92%
    14:00 -1°C° 0 mm 4 mps 740 mmHg 95%
    15:00 0°C° 0.2 mm 3 mps 740 mmHg 96%
    16:00 0°C° 0.2 mm 3 mps 739 mmHg 97%
    17:00 0°C° 0.2 mm 3 mps 739 mmHg 97%
    18:00 +1°C° 0.2 mm 2 mps 739 mmHg 97%
    19:00 +1°C° 0.2 mm 2 mps 739 mmHg 97%
    20:00 +1°C° 0.2 mm 2 mps 739 mmHg 97%
    21:00 +1°C° 0 mm 2 mps 739 mmHg 98%
    22:00 +2°C° 0 mm 1 mps 739 mmHg 98%
    23:00 +2°C° 0 mm 1 mps 739 mmHg 98%

    1 February, Saturday

    Time Temperature Precipitation Wind Pressure Humidity
    00:00 +2°C° 0 mm 1 mps 739 mmHg 98%
    01:00 +2°C° 0 mm 1 mps 739 mmHg 98%
    02:00 +1°C° 0 mm 0 mps 739 mmHg 98%
    03:00 +2°C° 0 mm 1 mps 740 mmHg 98%
    04:00 +2°C° 0 mm 1 mps 740 mmHg 98%
    05:00 +2°C° 0 mm 1 mps 740 mmHg 98%
    06:00 +2°C° 0 mm 1 mps 741 mmHg 98%
    07:00 +2°C° 0 mm 1 mps 741 mmHg 98%
    08:00 +1°C° 0 mm 2 mps 741 mmHg 98%
    09:00 +1°C° 0 mm 2 mps 742 mmHg 97%
    10:00 +1°C° 0 mm 2 mps 742 mmHg 97%
    11:00 +1°C° 0 mm 3 mps 742 mmHg 96%
    12:00 +1°C° 0 mm 3 mps 742 mmHg 94%
    13:00 +2°C° 0 mm 3 mps 742 mmHg 92%
    14:00 +2°C° 0 mm 3 mps 742 mmHg 90%
    15:00 +2°C° 0 mm 3 mps 742 mmHg 89%
    16:00 +2°C° 0 mm 3 mps 742 mmHg 89%
    17:00 +2°C° 0 mm 3 mps 742 mmHg 89%
    18:00 +2°C° 0 mm 3 mps 742 mmHg 90%
    19:00 +1°C° 0 mm 3 mps 742 mmHg 91%
    20:00 +1°C° 0 mm 3 mps 742 mmHg 92%
    21:00 +1°C° 0.1 mm 4 mps 742 mmHg 93%
    22:00 +1°C° 0.1 mm 4 mps 742 mmHg 94%
    23:00 +1°C° 0.1 mm 4 mps 741 mmHg 94%

    2 February, Sunday

    Time Temperature Precipitation Wind Pressure Humidity
    00:00 +1°C° 0.4 mm 4 mps 741 mmHg 95%
    01:00 +3°C° 0.4 mm 4 mps 741 mmHg 96%
    02:00 +3°C° 0.4 mm 4 mps 740 mmHg 97%
    03:00 +3°C° 0.3 mm 4 mps 740 mmHg 97%
    04:00 +3°C° 0.3 mm 4 mps 739 mmHg 97%
    05:00 +4°C° 0.3 mm 4 mps 739 mmHg 97%
    06:00 +4°C° 0 mm 4 mps 739 mmHg 96%
    07:00 +4°C° 0 mm 4 mps 738 mmHg 96%
    08:00 +4°C° 0 mm 4 mps 738 mmHg 96%
    09:00 +5°C° 0.3 mm 5 mps 738 mmHg 94%
    10:00 +4°C° 0.3 mm 6 mps 738 mmHg 92%
    11:00 +4°C° 0.3 mm 7 mps 739 mmHg 89%
    12:00 +4°C° 0 mm 7 mps 739 mmHg 84%
    13:00 +4°C° 0 mm 6 mps 739 mmHg 78%
    14:00 +4°C° 0 mm 6 mps 740 mmHg 73%
    15:00 +3°C° 0 mm 6 mps 740 mmHg 73%
    16:00 +3°C° 0 mm 5 mps 740 mmHg 73%
    17:00 +3°C° 0 mm 4 mps 741 mmHg 74%
    18:00 +3°C° 0 mm 4 mps 741 mmHg 76%
    19:00 +1°C° 0 mm 4 mps 740 mmHg 79%
    20:00 +1°C° 0 mm 4 mps 740 mmHg 82%
    21:00 +1°C° 0 mm 4 mps 739 mmHg 83%
    22:00 +1°C° 0 mm 4 mps 738 mmHg 83%
    23:00 0°C° 0 mm 4 mps 737 mmHg 84%
    Show more